{"data":{"norad_id":56910,"intl_designator":"2023-083AL","name":"STARLINK-6179","alt_names":[],"object_type":"PAYLOAD","status":"ACTIVE","operator":null,"country":"US","launch_date":"2023-06-12","launch_site_code":"AFETR","launch_vehicle":null,"mission":null,"orbit_class":"UNKNOWN","rcs_meters":null,"size_class":null,"mass_kg":null,"dimensions":null,"purposes":["comms"],"wikipedia_slug":null,"has_3d_model":false,"image_url":null,"decayed_at":null,"tle_current":{"epoch":"2026-05-24T23:12:29.815200Z","epoch_age_seconds":71293,"freshness":"FRESH","line1":"1 56910U 23083AL  26144.96701175  .00000387  00000+0  23582-4 0  9991","line2":"2 56910  43.0052 359.9179 0000902 269.1708  90.9040 15.27575623163458","mean_motion":15.27575623,"eccentricity":9.02e-5,"inclination_deg":43.0052,"raan_deg":359.9179,"arg_perigee_deg":269.1708,"mean_anomaly_deg":90.904,"bstar":2.3582e-5,"rev_number":16345,"period_min":94.267018818485,"perigee_km":482.44332221551,"apogee_km":483.68108255162,"semimajor_km":6861.1992023836,"source":"CELESTRAK","updated_at":"2026-05-25T13:38:18.203541Z"}}}